This is the latest recevied weather packets stored in our database for station/object WV8BRW. If no packets are shown the sender has not sent any weather packets the latest 10 day(s).
| Time | Temp. | Humidity | Pressure | Rain* | Wind** | Luminosity | Snow |
|---|---|---|---|---|---|---|---|
| 1777224355 | 14.44° C | 79% | 1016.4 hPa | 0 mm | - | 333 W/m² | - |
| 1777224052 | 15° C | 78% | 1016.3 hPa | 0 mm | - | 327 W/m² | - |
| 1777223749 | 14.44° C | 80% | 1016.4 hPa | 0 mm | - | 322 W/m² | - |
| 1777223444 | 14.44° C | 80% | 1016.3 hPa | 0 mm | - | 329 W/m² | - |
| 1777223143 | 14.44° C | 80% | 1016.6 hPa | 0 mm | - | 317 W/m² | - |
| 1777222839 | 13.89° C | 81% | 1016.6 hPa | 0 mm | - | 309 W/m² | - |
| 1777222537 | 13.89° C | 81% | 1016.4 hPa | 0 mm | - | 316 W/m² | - |
| 1777222234 | 13.89° C | 81% | 1016.6 hPa | 0 mm | - | 278 W/m² | - |
| 1777221933 | 13.89° C | 81% | 1016.7 hPa | 0 mm | - | 243 W/m² | - |
| 1777221627 | 13.89° C | 81% | 1016.7 hPa | 0 mm | - | 229 W/m² | - |
| 1777221325 | 13.89° C | 83% | 1016.8 hPa | 0 mm | - | 218 W/m² | - |
| 1777221023 | 13.89° C | 82% | 1016.7 hPa | 0 mm | - | 239 W/m² | - |
| 1777220722 | 13.33° C | 82% | 1016.7 hPa | 0 mm | - | 239 W/m² | - |
| 1777220418 | 13.33° C | 83% | 1016.8 hPa | 0 mm | - | 247 W/m² | - |
| 1777220118 | 13.33° C | 83% | 1016.6 hPa | 0 mm | - | 264 W/m² | - |
| 1777219815 | 12.78° C | 84% | 1016.7 hPa | 0 mm | - | 267 W/m² | - |
| 1777219513 | 12.78° C | 84% | 1016.7 hPa | 0 mm | - | 251 W/m² | - |
| 1777219209 | 12.78° C | 84% | 1016.9 hPa | 0 mm | - | 228 W/m² | - |
| 1777218904 | 12.78° C | 85% | 1016.7 hPa | 0 mm | - | 200 W/m² | - |
| 1777218601 | 12.78° C | 84% | 1016.9 hPa | 0 mm | - | 202 W/m² | - |
| 1777218301 | 12.78° C | 85% | 1016.6 hPa | 0 mm | - | 221 W/m² | - |
| 1777217998 | 12.78° C | 85% | 1016.7 hPa | 0 mm | - | 230 W/m² | - |
| 1777217694 | 12.78° C | 85% | 1016.8 hPa | 0 mm | - | 241 W/m² | - |
| 1777217389 | 12.78° C | 85% | 1016.8 hPa | 0 mm | - | 258 W/m² | - |
| 1777217086 | 12.78° C | 86% | 1016.8 hPa | 0 mm | - | 199 W/m² | - |
* Rain latest hour (hover to see other rain measurements)
** Current wind speed in m/s (hover to see current wind gust speed)